Retour au catalogue

STARLINK-5473

ActifCommunicationsVLEO
NORAD 55663·PAYLOAD·🇺🇸 United States

Lancé Feb 17, 2023 depuis Vandenberg Space Force Base

Loading…

Prochains Passages (prochaines 24 heures)

TLE

FraisSource: CelesTrak SupGP

Époque: Sep 14, 2026, 22:25 UTC

1 55663C 23021AM  26257.93451389 -.00014623  00000+0 -12263-2 0  2577
2 55663  70.0021  47.2867 0003309 267.3000  32.5756 14.98311500    15

Suivez STARLINK-5473 en temps réel avec AllMySat

Download on the App Store